This is the latest recevied weather packets stored in our database for station/object KO4DYK. If no packets are shown the sender has not sent any weather packets the latest 1 day(s).
| Time | Temp. | Humidity | Pressure | Rain* | Wind** | Luminosity | Snow |
|---|---|---|---|---|---|---|---|
| 1778066153 | 11.11° C | 99% | 1015 hPa | 1.78 mm | - | 0 W/m² | - |
| 1778065850 | 11.11° C | 99% | 1014.7 hPa | 4.83 mm | - | 0 W/m² | - |
| 1778065548 | 11.11° C | 99% | 1015.2 hPa | 7.11 mm | - | 0 W/m² | - |
| 1778065245 | 11.11° C | 99% | 1015.8 hPa | 7.87 mm | - | 0 W/m² | - |
| 1778064941 | 11.11° C | 99% | 1016.2 hPa | 7.11 mm | - | 0 W/m² | - |
| 1778064034 | 11.11° C | 99% | 1015.2 hPa | 6.1 mm | - | 0 W/m² | - |
| 1778062823 | 11.11° C | 99% | 1015.2 hPa | 0 mm | - | 0 W/m² | - |
| 1778061915 | 11.67° C | 99% | 1013.9 hPa | 1.27 mm | - | 0 W/m² | - |
| 1778061613 | 11.67° C | 99% | 1013.9 hPa | 0 mm | - | 0 W/m² | - |
| 1778060101 | 11.67° C | 99% | 1013.9 hPa | 0 mm | - | 0 W/m² | - |
| 1778059798 | 11.67° C | 99% | 1014.2 hPa | 3.05 mm | - | 0 W/m² | - |
| 1778059496 | 11.67° C | 99% | 1013.8 hPa | 4.32 mm | - | 0 W/m² | - |
| 1778059192 | 11.67° C | 99% | 1013.7 hPa | 4.32 mm | - | 0 W/m² | - |
| 1778058587 | 11.67° C | 99% | 1013 hPa | 7.87 mm | - | 0 W/m² | - |
| 1778057981 | 11.67° C | 99% | 1013.4 hPa | 19.81 mm | - | 0 W/m² | - |
| 1778057678 | 12.22° C | 99% | 1013.5 hPa | 24.64 mm | - | 0 W/m² | - |
| 1778056767 | 12.22° C | 99% | 1013.4 hPa | 3.05 mm | - | 0 W/m² | - |
| 1778056465 | 12.22° C | 99% | 1013.1 hPa | 4.83 mm | - | 0 W/m² | - |
| 1778056162 | 12.78° C | 99% | 1012.9 hPa | 3.05 mm | - | 0 W/m² | - |
| 1778055254 | 13.33° C | 99% | 1013.4 hPa | 3.56 mm | - | 0 W/m² | - |
| 1778054647 | 13.89° C | 99% | 1013.1 hPa | 1.78 mm | - | 0 W/m² | - |
| 1778054345 | 14.44° C | 99% | 1012.7 hPa | 1.78 mm | - | 0 W/m² | - |
| 1778054042 | 15.56° C | 99% | 1012 hPa | 0 mm | - | 0 W/m² | - |
| 1778053739 | 15.56° C | 99% | 1012.2 hPa | 0 mm | - | 0 W/m² | - |
| 1778053436 | 16.11° C | 99% | 1012 hPa | 0 mm | - | 0 W/m² | - |
* Rain latest hour (hover to see other rain measurements)
** Current wind speed in m/s (hover to see current wind gust speed)